Starlink 1727

operational
NORAD ID: 46335 Int'l Des: 2020-062 Owner: SPXS Country: US Constellation: starlink
LEOCIRCULARSTARLINK_TYPE

Starlink 1727について

説明を読み込み中...

リアルタイム位置

3D地球を読み込み中...

次回通過

高度履歴

Altitude vs Time

uPlot chart will show altitude changes over time

軌道要素

1 46335U 20062L 25256.81764854 .00002391 00000-0 17933-3 0 9995
2 46335 53.0536 90.6266 0001383 89.5844 270.5303 15.06400418277653
Epoch: Sep 13, 2025 • Age: 36 hours

現在のステータス

高度 547.9 km
速度 7.59 km/s
衛星直下点 0.86°N, 157.09°E
打ち上げ日 Sep 3, 2020
運用期間 5 years
タイプ internet

技術仕様

分類 Payload
質量 260.00 kg
乾燥質量 248.00 kg
総質量 260.00 kg
長さ 0.20 m
直径 2.80 m
スパン 9.00 m
形状 Box + pan
製造者 SPXS
バスタイプ Starlink
フェーズステータス In Orbit
所有者/国 SPXS/US

大規模コンステレーション

Loading constellations...